User: anonymous   Login
Location: Antist
(43.1184°N, 0.1270°E)
Time: 20:14:29
(UTC+00:00)
Language:

STARLINK-1094 - Orbit

View from above orbital plane
View from above orbital plane
View from above satellite
View from above satellite

Ground track
Ground track

The orbit data is extracted from the following two-line orbital elements,

1 44941C 20001AD  20091.53705617 -.00974775  00000-0 -63012-1 0   918
2 44941  52.9956 344.3611 0001467  69.8206 132.1770 15.08696489    19
Epoch (UTC): 31 March 2020 12:53:21
Eccentricity: 0.0001467
inclination: 52.9956°
perigee height: 539 km
apogee height: 541 km
right ascension of ascending node: 344.3611°
argument of perigee: 69.8206°
revolutions per day: 15.08696489
mean anomaly at epoch: 132.1770°
orbit number at epoch: 1

The dashed part of the orbit path shows where the satellite is in the earth's shadow,  

DLR